When you browse on this site, cookies collect data to enhance your experience and personalize the content and advertising you see.
Visit our Privacy Policy to learn more. By continuing to use the site, you agree to this use of cookies and data.
  • Em Portugal
  • Lista de países
  • Para 7 dias
  • Temperatura da água
  • Mapa do tempo
  • Widgets de tempo
  • user-avatar
    Iniciar Sessão

    Previsão horária em Sekirino

    Hoje, 5 Junho, Sexta-feira

    Tempo Temperatura Precipitação Vento Pressão Humidade
    00:00 +10°C° 0 mm 2 m/s 741 mmHg 95%
    01:00 +10°C° 0 mm 2 m/s 742 mmHg 96%
    02:00 +9°C° 0 mm 3 m/s 742 mmHg 97%
    03:00 +9°C° 0 mm 3 m/s 742 mmHg 96%
    04:00 +10°C° 0 mm 3 m/s 742 mmHg 95%
    05:00 +10°C° 0 mm 3 m/s 743 mmHg 95%
    06:00 +12°C° 0 mm 3 m/s 743 mmHg 89%
    07:00 +13°C° 0 mm 4 m/s 743 mmHg 84%
    08:00 +14°C° 0 mm 4 m/s 744 mmHg 79%
    09:00 +17°C° 0.1 mm 4 m/s 743 mmHg 73%
    10:00 +18°C° 0.1 mm 4 m/s 743 mmHg 66%
    11:00 +19°C° 0.1 mm 4 m/s 743 mmHg 60%
    12:00 +19°C° 0.3 mm 4 m/s 743 mmHg 62%
    13:00 +19°C° 0.3 mm 4 m/s 743 mmHg 63%
    14:00 +19°C° 0 mm 3 m/s 744 mmHg 60%
    15:00 +18°C° 0.7 mm 3 m/s 744 mmHg 68%
    16:00 +18°C° 0.7 mm 2 m/s 744 mmHg 76%
    17:00 +17°C° 0.7 mm 2 m/s 743 mmHg 84%
    18:00 +16°C° 0.2 mm 2 m/s 744 mmHg 87%
    19:00 +14°C° 0.2 mm 2 m/s 744 mmHg 91%
    20:00 +13°C° 0.2 mm 2 m/s 744 mmHg 94%
    21:00 +12°C° 0 mm 2 m/s 744 mmHg 95%
    22:00 +12°C° 0 mm 2 m/s 744 mmHg 96%
    23:00 +10°C° 0 mm 2 m/s 744 mmHg 98%

    Amanhã, 6 Junho, Sábado

    Tempo Temperatura Precipitação Vento Pressão Humidade
    00:00 +10°C° 0 mm 2 m/s 745 mmHg 97%
    01:00 +9°C° 0 mm 2 m/s 745 mmHg 97%
    02:00 +10°C° 0 mm 1 m/s 745 mmHg 97%
    03:00 +11°C° 0 mm 1 m/s 745 mmHg 97%
    04:00 +10°C° 0 mm 2 m/s 745 mmHg 96%
    05:00 +10°C° 0 mm 2 m/s 745 mmHg 96%
    06:00 +13°C° 0 mm 2 m/s 746 mmHg 91%
    07:00 +15°C° 0 mm 2 m/s 746 mmHg 86%
    08:00 +16°C° 0 mm 3 m/s 746 mmHg 81%
    09:00 +18°C° 0 mm 3 m/s 746 mmHg 73%
    10:00 +19°C° 0 mm 3 m/s 746 mmHg 65%
    11:00 +21°C° 0 mm 4 m/s 746 mmHg 57%
    12:00 +21°C° 0 mm 4 m/s 746 mmHg 58%
    13:00 +22°C° 0 mm 4 m/s 746 mmHg 58%
    14:00 +23°C° 0 mm 4 m/s 746 mmHg 58%
    15:00 +21°C° 0.7 mm 3 m/s 745 mmHg 70%
    16:00 +20°C° 0.7 mm 2 m/s 745 mmHg 82%
    17:00 +18°C° 0.7 mm 2 m/s 745 mmHg 93%
    18:00 +18°C° 0.7 mm 2 m/s 745 mmHg 94%
    19:00 +17°C° 0.7 mm 2 m/s 745 mmHg 96%
    20:00 +17°C° 0.7 mm 2 m/s 746 mmHg 97%
    21:00 +17°C° 0.1 mm 2 m/s 746 mmHg 97%
    22:00 +16°C° 0.1 mm 2 m/s 746 mmHg 97%
    23:00 +16°C° 0.1 mm 2 m/s 746 mmHg 98%

    Depois de amanhã, 7 Junho, Domingo

    Tempo Temperatura Precipitação Vento Pressão Humidade
    00:00 +16°C° 0 mm 2 m/s 747 mmHg 98%
    01:00 +15°C° 0 mm 2 m/s 747 mmHg 97%
    02:00 +15°C° 0 mm 2 m/s 748 mmHg 97%
    03:00 +15°C° 0 mm 2 m/s 748 mmHg 97%
    04:00 +15°C° 0 mm 2 m/s 748 mmHg 96%
    05:00 +16°C° 0 mm 2 m/s 749 mmHg 95%
    06:00 +17°C° 0 mm 2 m/s 749 mmHg 90%
    07:00 +19°C° 0 mm 2 m/s 750 mmHg 84%
    08:00 +20°C° 0 mm 2 m/s 750 mmHg 78%
    09:00 +21°C° 0 mm 2 m/s 751 mmHg 70%
    10:00 +24°C° 0 mm 2 m/s 751 mmHg 61%
    11:00 +25°C° 0 mm 2 m/s 751 mmHg 53%
    12:00 +25°C° 0 mm 2 m/s 751 mmHg 51%
    13:00 +26°C° 0 mm 2 m/s 752 mmHg 49%
    14:00 +26°C° 0 mm 2 m/s 752 mmHg 46%
    15:00 +26°C° 0 mm 1 m/s 752 mmHg 49%
    16:00 +26°C° 0 mm 1 m/s 752 mmHg 51%
    17:00 +26°C° 0 mm 1 m/s 752 mmHg 54%
    18:00 +24°C° 0 mm 1 m/s 752 mmHg 60%
    19:00 +21°C° 0 mm 1 m/s 752 mmHg 67%
    20:00 +19°C° 0 mm 1 m/s 752 mmHg 73%
    21:00 +18°C° 0 mm 1 m/s 752 mmHg 77%
    22:00 +18°C° 0 mm 1 m/s 752 mmHg 80%
    23:00 +16°C° 0 mm 1 m/s 752 mmHg 84%

    8 Junho, Segunda-feira

    Tempo Temperatura Precipitação Vento Pressão Humidade
    00:00 +15°C° 0 mm 1 m/s 752 mmHg 86%
    01:00 +15°C° 0 mm 1 m/s 753 mmHg 89%
    02:00 +15°C° 0 mm 1 m/s 753 mmHg 91%
    03:00 +15°C° 0 mm 1 m/s 753 mmHg 89%
    04:00 +16°C° 0 mm 1 m/s 753 mmHg 88%
    05:00 +18°C° 0 mm 1 m/s 753 mmHg 86%
    06:00 +20°C° 0 mm 1 m/s 753 mmHg 81%
    07:00 +21°C° 0 mm 2 m/s 753 mmHg 75%
    08:00 +24°C° 0 mm 2 m/s 753 mmHg 69%
    09:00 +25°C° 0 mm 2 m/s 753 mmHg 64%
    10:00 +26°C° 0 mm 2 m/s 753 mmHg 58%
    11:00 +27°C° 0 mm 2 m/s 753 mmHg 52%
    12:00 +28°C° 0 mm 2 m/s 753 mmHg 51%
    13:00 +28°C° 0 mm 2 m/s 753 mmHg 49%
    14:00 +29°C° 0 mm 2 m/s 752 mmHg 48%
    15:00 +29°C° 0 mm 2 m/s 752 mmHg 52%
    16:00 +28°C° 0 mm 2 m/s 752 mmHg 57%
    17:00 +28°C° 0 mm 2 m/s 752 mmHg 61%
    18:00 +26°C° 0 mm 2 m/s 752 mmHg 68%
    19:00 +24°C° 0 mm 2 m/s 752 mmHg 76%
    20:00 +21°C° 0 mm 2 m/s 752 mmHg 83%
    21:00 +20°C° 0 mm 2 m/s 752 mmHg 87%
    22:00 +19°C° 0 mm 2 m/s 752 mmHg 91%
    23:00 +18°C° 0 mm 2 m/s 752 mmHg 94%

    9 Junho, Terça-feira

    Tempo Temperatura Precipitação Vento Pressão Humidade
    00:00 +18°C° 0 mm 2 m/s 752 mmHg 95%
    01:00 +19°C° 0 mm 1 m/s 752 mmHg 95%
    02:00 +18°C° 0 mm 1 m/s 753 mmHg 95%
    03:00 +19°C° 0 mm 1 m/s 753 mmHg 93%
    04:00 +19°C° 0 mm 2 m/s 753 mmHg 91%
    05:00 +19°C° 0 mm 2 m/s 753 mmHg 89%
    06:00 +21°C° 0 mm 2 m/s 753 mmHg 82%
    07:00 +24°C° 0 mm 2 m/s 753 mmHg 75%
    08:00 +25°C° 0 mm 2 m/s 753 mmHg 67%
    09:00 +26°C° 0 mm 2 m/s 753 mmHg 63%
    10:00 +27°C° 0 mm 3 m/s 753 mmHg 59%
    11:00 +28°C° 0 mm 3 m/s 753 mmHg 54%
    12:00 +28°C° 0 mm 3 m/s 753 mmHg 53%
    13:00 +28°C° 0 mm 3 m/s 753 mmHg 53%
    14:00 +29°C° 0 mm 3 m/s 752 mmHg 52%
    15:00 +28°C° 0 mm 3 m/s 752 mmHg 56%
    16:00 +28°C° 0 mm 3 m/s 752 mmHg 59%
    17:00 +27°C° 0 mm 2 m/s 752 mmHg 63%
    18:00 +25°C° 0 mm 2 m/s 752 mmHg 70%
    19:00 +24°C° 0 mm 2 m/s 752 mmHg 78%
    20:00 +21°C° 0 mm 2 m/s 752 mmHg 85%
    21:00 +20°C° 0 mm 2 m/s 752 mmHg 88%
    22:00 +19°C° 0 mm 2 m/s 752 mmHg 92%
    23:00 +18°C° 0 mm 2 m/s 752 mmHg 95%

    10 Junho, Quarta-feira

    Tempo Temperatura Precipitação Vento Pressão Humidade
    00:00 +17°C° 0 mm 2 m/s 752 mmHg 95%
    01:00 +17°C° 0 mm 2 m/s 752 mmHg 96%
    02:00 +17°C° 0 mm 2 m/s 752 mmHg 96%
    03:00 +17°C° 0 mm 2 m/s 752 mmHg 94%
    04:00 +18°C° 0 mm 2 m/s 752 mmHg 92%
    05:00 +18°C° 0 mm 2 m/s 752 mmHg 90%
    06:00 +20°C° 0 mm 2 m/s 752 mmHg 84%
    07:00 +23°C° 0 mm 2 m/s 752 mmHg 77%
    08:00 +24°C° 0 mm 2 m/s 752 mmHg 70%
    09:00 +25°C° 0 mm 2 m/s 752 mmHg 65%
    10:00 +26°C° 0 mm 2 m/s 751 mmHg 61%
    11:00 +27°C° 0 mm 3 m/s 751 mmHg 56%
    12:00 +27°C° 0 mm 2 m/s 751 mmHg 55%
    13:00 +28°C° 0 mm 2 m/s 750 mmHg 54%
    14:00 +28°C° 0 mm 2 m/s 750 mmHg 53%
    15:00 +28°C° 0.1 mm 2 m/s 750 mmHg 57%
    16:00 +27°C° 0.1 mm 2 m/s 750 mmHg 61%
    17:00 +27°C° 0.1 mm 2 m/s 749 mmHg 66%
    18:00 +25°C° 0.1 mm 2 m/s 749 mmHg 73%
    19:00 +23°C° 0.1 mm 1 m/s 749 mmHg 80%
    20:00 +21°C° 0.1 mm 1 m/s 749 mmHg 87%
    21:00 +20°C° 0 mm 1 m/s 749 mmHg 89%
    22:00 +20°C° 0 mm 1 m/s 749 mmHg 91%
    23:00 +19°C° 0 mm 1 m/s 749 mmHg 93%
    Mostrar mais